Location: Mohawk View
(42.7837°N, 73.7885°W)
Time: 13:31:33
(UTC+00:00)

IRIDIUM 103 - Pass Details

Date: 17 June 2021
Orbit: 776 x 779 km, 86.4° (Epoch: 30 July)

Event Time Altitude Azimuth Distance (km) Brightness Sun altitude
Rises 07:57:36 0° 353° (N) 3,272 8.2 -11.7°
Reaches altitude 10° 07:59:59 10° 349° (N) 2,339 7.3 -11.5°
Maximum altitude 08:05:07 58° 272° (W) 903 4.5 -10.8°
Drops below altitude 10° 08:10:12 10° 194° (SSW) 2,320 6.3 -10.2°
Enters shadow 08:10:34 - 193° (SSW) 2,463 6.4 -10.1°
